{"data":{"norad_id":68934,"intl_designator":"2026-098R","name":"KUIPER-00425","alt_names":[],"object_type":"PAYLOAD","status":"ACTIVE","operator":null,"country":"US","launch_date":"2026-04-30","launch_site_code":"FRGUI","launch_vehicle":null,"mission":null,"orbit_class":"UNKNOWN","rcs_meters":null,"size_class":null,"mass_kg":null,"dimensions":null,"purposes":[],"wikipedia_slug":null,"has_3d_model":false,"image_url":null,"decayed_at":null,"tle_current":{"epoch":"2026-05-25T02:16:48.514944Z","epoch_age_seconds":66951,"freshness":"FRESH","line1":"1 68934U 26098R   26145.09500596 -.00006667  00000+0 -20872-3 0  9995","line2":"2 68934  51.8748 179.4725 0018713  73.0309 287.2724 15.30595983  3791","mean_motion":15.30595983,"eccentricity":0.0018713,"inclination_deg":51.8748,"raan_deg":179.4725,"arg_perigee_deg":73.0309,"mean_anomaly_deg":287.2724,"bstar":-0.00020872,"rev_number":379,"period_min":94.080999557935,"perigee_km":461.21052476485,"apogee_km":486.85545617117,"semimajor_km":6852.169990468,"source":"CELESTRAK","updated_at":"2026-05-25T13:38:08.795615Z"}}}